CZ-4C DEB, 44613

Orbit data source: Space-Track

CZ-4C DEB, 44613 is space debris in SSO originally from a launch on Tue, 14 Nov 2017 UTC launched from the Taiyaun Space Center, China (TSC). Debris objects in space refer to the collection of defunct objects orbiting the Earth. Examples of debris include non-operational satellites, rocket bodies, and fragments generated from explosions, collisions, or faulty payload assembly.

Loading next visibility...
Identifier
44613, 2017-072D
Orbit
SSO
Country
Flag of CNCN / PRC
Related business
Manufacturer
Unknown
Mission
Spacecraft
Bus & Motor
Unknown
Mass
Unknown
Launch date (UTC)
2017-11-14 (8 years ago)
Launch vehicle
Unknown
Launch site
Taiyaun Space Center, China (TSC)
Object type
Payload
Rocket body
Debris
Shape & HBR
Unknown shape, 0.1 m
Radar Cross Section
Small (<0.1 m²)

Expand to show TLE details & history
Last TLE update: 1 day ago

TLE from 1 day ago
0 CZ-4C DEB
1 44613U 17072D   26034.08907758  .00000377  00000-0  32883-3 0  9998
2 44613  98.5108  82.5877 0229138 353.3395   6.4729 13.79967422399441
Epoch: 2026-02-03T02:08Z
TLE epoch observation values (Epoch: 2026-02-03T02:08:16.302Z)
Latitude
-0.00008°
Longitude
-82.75523°
Altitude
799.725 km
Speed
7.538 km/s
True Right ascension
05h 30m 21s
True Declination
0° 00' 00"
Sunlit
Object was in full shadow at epoch
Visualization orbit readout
Latitude
Unknown
Longitude
Unknown
Altitude
Unknown
Speed
Unknown
Apparent Right ascension
Unknown
Apparent Declination
Unknown
Sunlit
N/A
Visualization observer readout
Local Sidereal Time
14:33:23
Azimuth
Unknown
Elevation
Unknown
Doppler factor
Unknown
Orbital elements
Apogee altitude
1,129.375 km
Perigee altitude
793.031 km
Semi-major axis
7,339.34 km
Eccentricity
0.02291
Inclination
98.5108°
RAAN
82.5877°
Arg. of periapsis
353.3395°
True anomaly
6.77757°
Mean anomaly
6.4729°
Eccentric anomaly
6.62435°
Mean motion
3.4519 °/min
Orbital period
104.29 mins
BSTAR
0.00032883
Loading maneuver chart data...
Computing Atmospheric mass density...
Loading historical data...
Loading historical data...
Loading historical data...
Loading historical data...
Loading historical data...
Loading historical data...
Loading historical data...
Other satellites on launch #72 in the year 2017 (2017-11-14 UTC)

Documentation

Showing up to 5 results
|